Location: Cuiry
(49.3858°N, 3.7708°E)
Time: 00:35:43
(UTC+00:00)

SL-16 R/B - Pass Details

Date: 12 January 2026
Orbit: 985 x 1007 km, 99.8° (Epoch: 17 February)

Event Time Altitude Azimuth Distance (km) Brightness Sun altitude
Rises 17:14:55 0° 13° (NNE) 3,709 5.2 -10.2°
Reaches altitude 10° 17:17:25 10° 10° (N) 2,755 4.6 -10.6°
Maximum altitude 17:23:27 58° 293° (WNW) 1,143 3.1 -11.5°
Drops below altitude 10° 17:29:27 10° 217° (SW) 2,737 5.7 -12.5°
Sets 17:31:56 0° 213° (SSW) 3,683 6.4 -12.9°
